CW7972 Weather Reports


time (UTC)temp
C
wind
direction
speed
KPH
gust
KPH
rain 1hr
cm
rain 24hr
cm
rain mn
cm
humidity
%
barometer
mb
20260504032718 14 280 6.4 16.1 0.00 0.00 0.00 69 1035.1
20260504032004 14 279 6.4 14.5 0.00 0.00 0.00 69 1035.1
20260504031504 15 275 4.8 9.7 0.00 0.00 0.00 68 1035.1
20260504031004 15 274 4.8 11.3 0.00 0.00 0.00 69 1035.0
20260504030504 15 278 4.8 11.3 0.00 0.00 0.00 69 1035.0
20260504030217 15 278 4.8 9.7 0.00 0.00 0.00 69 1035.1
20260504025504 15 274 3.2 11.3 0.00 0.00 0.00 69 1035.1
20260504025004 15 291 1.6 11.3 0.00 0.00 0.00 69 1035.2
20260504024504 15 294 3.2 9.7 0.00 0.00 0.00 69 1035.2
20260504024219 15 282 3.2 11.3 0.00 0.00 0.00 69 1035.2
20260504023504 15 276 4.8 11.3 0.00 0.00 0.00 68 1035.2
20260504023219 15 278 3.2 11.3 0.00 0.00 0.00 69 1035.2
20260504022504 15 291 3.2 11.3 0.00 0.00 0.00 69 1035.3
20260504022004 15 295 3.2 12.9 0.00 0.00 0.00 70 1035.3
20260504021504 15 291 4.8 16.1 0.00 0.00 0.00 70 1035.4
20260504021004 15 279 4.8 16.1 0.00 0.00 0.00 69 1035.4
20260504020504 15 272 4.8 14.5 0.00 0.00 0.00 70 1035.4
20260504020005 15 274 4.8 14.5 0.00 0.00 0.00 70 1035.4
20260504015504 15 284 6.4 14.5 0.00 0.00 0.00 70 1035.4
20260504015004 15 292 4.8 14.5 0.00 0.00 0.00 69 1035.4
20260504014720 15 293 4.8 12.9 0.00 0.00 0.00 69 1035.4
20260504014004 15 282 4.8 12.9 0.00 0.00 0.00 69 1035.4
20260504013504 15 275 4.8 14.5 0.00 0.00 0.00 69 1035.4
20260504013005 15 275 3.2 14.5 0.00 0.00 0.00 68 1035.4
20260504012504 15 286 3.2 14.5 0.00 0.00 0.00 69 1035.5
20260504012004 15 288 3.2 14.5 0.00 0.00 0.00 68 1035.5
20260504011504 15 277 4.8 11.3 0.00 0.00 0.00 68 1035.6
20260504011004 15 273 6.4 14.5 0.00 0.00 0.00 68 1035.6
20260504010504 15 280 6.4 16.1 0.00 0.00 0.00 68 1035.7
20260504010004 15 284 4.8 16.1 0.00 0.00 0.00 68 1035.7
20260504005717 15 280 3.2 16.1 0.00 0.00 0.00 68 1035.8
20260504005005 15 285 3.2 12.9 0.00 0.00 0.00 68 1035.8
20260504004504 15 278 4.8 16.1 0.00 0.00 0.00 68 1035.9
20260504004004 15 278 4.8 16.1 0.00 0.00 0.00 67 1035.9
20260504003504 15 279 4.8 12.9 0.00 0.00 0.00 69 1036.0
20260504003004 15 280 4.8 11.3 0.00 0.00 0.00 67 1036.0
20260504002503 15 287 3.2 9.7 0.00 0.00 0.00 68 1036.1
20260504002004 15 281 3.2 9.7 0.00 0.00 0.00 69 1036.2
20260504001504 15 283 1.6 11.3 0.00 0.00 0.00 70 1036.2
20260504001004 14 290 3.2 11.3 0.00 0.00 0.00 70 1036.3
20260504000504 14 285 4.8 12.9 0.00 0.00 0.00 70 1036.4
20260504000004 14 278 4.8 12.9 0.00 0.00 0.00 70 1036.4
20260503235504 14 276 3.2 9.7 0.00 0.00 0.00 70 1036.4
20260503235004 14 276 3.2 14.5 0.00 0.00 0.00 70 1036.4
20260503234504 14 275 4.8 14.5 0.00 0.00 0.00 69 1036.4
20260503234004 15 285 3.2 12.9 0.00 0.00 0.00 69 1036.5
20260503233504 15 327 1.6 9.7 0.00 0.00 0.00 69 1036.5
20260503233004 15 309 1.6 9.7 0.00 0.00 0.00 70 1036.5
20260503232504 14 274 3.2 14.5 0.00 0.00 0.00 70 1036.6
20260503232004 14 275 4.8 14.5 0.00 0.00 0.00 71 1036.6
20260503231505 14 282 4.8 14.5 0.00 0.00 0.00 71 1036.6
20260503231004 14 283 4.8 12.9 0.00 0.00 0.00 70 1036.6
20260503230504 14 275 3.2 12.9 0.00 0.00 0.00 70 1036.6
20260503230004 14 278 3.2 11.3 0.00 0.00 0.00 70 1036.6
20260503225504 14 282 3.2 11.3 0.00 0.00 0.00 70 1036.6
20260503225218 14 280 3.2 11.3 0.00 0.00 0.00 71 1036.6
20260503224719 14 279 3.2 12.9 0.00 0.00 0.00 71 1036.6
20260503224004 14 285 3.2 12.9 0.00 0.00 0.00 70 1036.6
20260503223504 14 282 3.2 9.7 0.00 0.00 0.00 71 1036.6
20260503223217 14 282 1.6 8.0 0.00 0.00 0.00 73 1036.6
20260503222504 14 308 3.2 8.0 0.00 0.00 0.00 71 1036.6
20260503222004 14 311 1.6 8.0 0.00 0.00 0.00 71 1036.6
20260503221504 14 298 1.6 6.4 0.00 0.00 0.00 72 1036.6
20260503221217 14 307 1.6 6.4 0.00 0.00 0.00 72 1036.6
20260503220504 13 290 3.2 11.3 0.00 0.00 0.00 73 1036.6
20260503220005 13 280 3.2 11.3 0.00 0.00 0.00 75 1036.6
20260503215504 13 296 1.6 4.8 0.00 0.00 0.00 75 1036.6
20260503215004 13 318 1.6 4.8 0.00 0.00 0.00 75 1036.6
20260503214505 13 303 1.6 4.8 0.00 0.00 0.00 76 1036.6
20260503214217 13 300 1.6 6.4 0.00 0.00 0.00 76 1036.6
20260503213504 13 331 1.6 6.4 0.00 0.00 0.00 77 1036.5
20260503213005 13 331 1.6 6.4 0.00 0.00 0.00 77 1036.6
20260503212504 13 326 1.6 6.4 0.00 0.00 0.00 78 1036.6
20260503212219 13 323 1.6 6.4 0.00 0.00 0.00 78 1036.6
20260503211504 13 332 3.2 8.0 0.00 0.00 0.00 78 1036.5
20260503211004 13 330 1.6 6.4 0.00 0.00 0.00 79 1036.5
20260503210504 12 349 0.0 6.4 0.00 0.00 0.00 80 1036.6
20260503210005 12 344 1.6 6.4 0.00 0.00 0.00 81 1036.5
20260503205504 12 324 1.6 6.4 0.00 0.00 0.00 81 1036.5
20260503205004 12 322 1.6 6.4 0.00 0.00 0.00 81 1036.5
20260503204504 12 331 1.6 6.4 0.00 0.00 0.00 81 1036.5
20260503204004 12 329 1.6 6.4 0.00 0.00 0.00 82 1036.5
20260503203504 12 349 1.6 6.4 0.00 0.00 0.00 82 1036.5
20260503203004 12 349 1.6 6.4 0.00 0.00 0.00 82 1036.4
20260503202718 12 340 1.6 6.4 0.00 0.00 0.00 83 1036.4
20260503202004 12 347 1.6 8.0 0.00 0.00 0.00 83 1036.4
20260503201504 12 347 1.6 8.0 0.00 0.00 0.00 84 1036.3
20260503201004 11 336 1.6 6.4 0.00 0.00 0.00 84 1036.3
20260503200504 11 353 1.6 8.0 0.00 0.00 0.00 85 1036.3
20260503200004 11 357 1.6 8.0 0.00 0.00 0.00 85 1036.2
20260503195504 11 326 0.0 3.2 0.00 0.00 0.00 85 1036.2
20260503195004 11 322 1.6 3.2 0.00 0.00 0.00 86 1036.2
20260503194504 11 326 0.0 3.2 0.00 0.00 0.00 86 1036.2
20260503194004 11 0 0.0 3.2 0.00 0.00 0.00 86 1036.2
20260503193503 11 0 0.0 1.6 0.00 0.00 0.00 86 1036.1
20260503193004 11 314 0.0 4.8 0.00 0.00 0.00 86 1036.1
20260503192504 11 333 0.0 6.4 0.00 0.00 0.00 86 1036.1
20260503192004 11 341 0.0 6.4 0.00 0.00 0.00 86 1036.1
20260503191504 11 344 1.6 6.4 0.00 0.00 0.00 86 1036.1
20260503191004 11 339 1.6 6.4 0.00 0.00 0.00 86 1036.1
20260503190504 11 340 1.6 6.4 0.00 0.00 0.00 86 1036.1
20260503190218 11 336 1.6 4.8 0.00 0.00 0.00 86 1036.1
20260503185719 11 322 1.6 3.2 0.00 0.00 0.00 86 1036.1
20260503185004 11 332 1.6 6.4 0.00 0.00 0.00 86 1036.0
20260503184504 11 338 1.6 6.4 0.00 0.00 0.00 86 1036.0
20260503184004 11 330 1.6 6.4 0.00 0.00 0.00 85 1036.0
20260503183719 11 327 0.0 6.4 0.00 0.00 0.00 86 1036.0
20260503183004 11 331 1.6 8.0 0.00 0.00 0.00 85 1036.0
20260503182505 11 335 1.6 9.7 0.00 0.00 0.00 85 1036.0
20260503182005 11 341 1.6 9.7 0.00 0.00 0.00 85 1036.0
20260503181505 11 341 1.6 8.0 0.00 0.00 0.00 85 1035.9
20260503181004 11 332 1.6 6.4 0.00 0.00 0.00 85 1035.9
20260503180719 11 337 1.6 6.4 0.00 0.00 0.00 86 1035.9
20260503180004 11 321 1.6 6.4 0.00 0.00 0.00 86 1035.9
20260503175504 11 324 1.6 4.8 0.00 0.00 0.00 86 1035.8
20260503175004 11 340 1.6 8.0 0.00 0.00 0.00 86 1035.9
20260503174504 11 341 1.6 8.0 0.00 0.00 0.00 86 1035.9
20260503174004 11 329 0.0 4.8 0.00 0.00 0.00 86 1035.9
20260503173504 11 320 0.0 4.8 0.00 0.00 0.00 86 1035.9
20260503173005 11 303 0.0 6.4 0.00 0.00 0.00 86 1035.9
20260503172504 11 305 0.0 6.4 0.00 0.00 0.00 86 1035.9
20260503172004 11 327 0.0 3.2 0.00 0.00 0.00 86 1035.9
20260503171504 11 323 0.0 3.2 0.00 0.00 0.00 86 1035.9
20260503171004 11 331 0.0 4.8 0.00 0.00 0.00 86 1035.9
20260503170719 11 340 1.6 4.8 0.00 0.00 0.00 86 1036.0
20260503170218 11 337 1.6 6.4 0.00 0.00 0.00 86 1036.0
20260503151004 10 347 1.6 9.7 0.00 0.00 0.00 90 1036.2
20260503150504 10 4 0.0 6.4 0.00 0.00 0.00 89 1036.2
20260503131218 9 29 1.6 4.8 0.00 0.00 0.00 89 1036.4
20260503130504 9 41 1.6 4.8 0.00 0.00 0.00 89 1036.3
20260503110504 9 49 0.0 3.2 0.00 0.00 0.00 90 1035.8
20260503090504 8 0 0.0 0.0 0.00 0.00 0.00 88 1035.2
20260503081504 9 0 0.0 0.0 0.00 0.00 0.00 87 1035.1
20260503081004 9 0 0.0 0.0 0.00 0.00 0.00 87 1035.1
20260503080504 9 0 0.0 0.0 0.00 0.00 0.00 87 1035.1
20260503072505 9 0 0.0 0.0 0.00 0.00 0.00 85 1035.1
20260503072004 9 0 0.0 0.0 0.00 0.00 0.00 85 1035.1
20260503071504 9 0 0.0 1.6 0.00 0.00 0.00 84 1035.1
20260503071005 9 0 0.0 1.6 0.00 0.00 0.00 84 1035.1
20260503070504 10 0 0.0 0.0 0.00 0.00 0.00 82 1035.1
20260503055004 12 0 0.0 1.6 0.00 0.00 0.00 76 1034.9
20260503054718 12 0 0.0 1.6 0.00 0.00 0.00 76 1034.9
20260503054004 12 270 0.0 3.2 0.00 0.00 0.00 76 1034.8
20260503053504 12 270 0.0 3.2 0.00 0.00 0.00 76 1034.8
20260503053004 13 269 0.0 6.4 0.00 0.00 0.00 75 1034.8
20260503052504 13 268 1.6 6.4 0.00 0.00 0.00 75 1034.8
20260503052004 13 268 3.2 8.0 0.00 0.00 0.00 75 1034.8
20260503051504 13 266 4.8 8.0 0.00 0.00 0.00 74 1034.7
20260503051004 13 266 4.8 9.7 0.00 0.00 0.00 74 1034.7
20260503050504 13 265 4.8 9.7 0.00 0.00 0.00 73 1034.7
20260503050005 14 263 4.8 11.3 0.00 0.00 0.00 73 1034.7
20260503045505 14 267 4.8 11.3 0.00 0.00 0.00 73 1034.7
20260503045219 14 267 4.8 11.3 0.00 0.00 0.00 72 1034.7
20260503044718 14 272 6.4 12.9 0.00 0.00 0.00 72 1034.7
20260503044005 14 274 6.4 19.3 0.00 0.00 0.00 72 1034.7
20260503043504 14 274 6.4 14.5 0.00 0.00 0.00 71 1034.6
20260503043004 15 275 6.4 14.5 0.00 0.00 0.00 71 1034.6
20260503042504 15 278 6.4 14.5 0.00 0.00 0.00 70 1034.6
20260503042004 15 270 6.4 17.7 0.00 0.00 0.00 70 1034.6
20260503041504 15 268 6.4 17.7 0.00 0.00 0.00 69 1034.5
20260503041219 15 270 6.4 17.7 0.00 0.00 0.00 69 1034.5
20260503040504 15 265 6.4 16.1 0.00 0.00 0.00 68 1034.5
20260503040005 16 268 6.4 16.1 0.00 0.00 0.00 66 1034.4
20260503035504 17 270 4.8 9.7 0.00 0.00 0.00 63 1034.4
20260503035004 17 267 4.8 11.3 0.00 0.00 0.00 61 1034.4
20260503034504 18 272 4.8 11.3 0.00 0.00 0.00 60 1034.4
20260503034004 18 279 3.2 14.5 0.00 0.00 0.00 59 1034.4
20260503033504 18 286 4.8 14.5 0.00 0.00 0.00 58 1034.4
20260503033219 18 288 4.8 9.7 0.00 0.00 0.00 59 1034.4